Welcome to the New NWS' Forecast!
Most changes are behind the scenes, but click here for differences you might notice.

Regional Weather Roundup (RWR)

Issued by Baltimore/Washington (LWX)

                            
594 
ASUS41 KLWX 201210
RWRLWX

REGIONAL WEATHER ROUNDUP
NATIONAL WEATHER SERVICE BALTIMORE MD/WASHINGTON DC
800 AM EDT MON AUG 20 2018

Note: "FAIR" indicates few or no clouds below 12,000 feet
with no significant weather and/or obstructions to visibility.
 TC=TEMPERATURE CELSIUS

 * =Non NWS site. Station does not report precipitation (e.g. rain,
    snow, etc.), thunder, or fog.

DCZ001-MDZ009-015-VAZ040>042-051-053>054-201300-
WASHINGTON METRO
  
CITY           SKY/WX    TMP DP  RH WIND       PRES   REMARKS
WASHINGTON NAT LGT RAIN  72  65  78 NE13      30.08R                  
DULLES         PTSUNNY   69  67  93 NE8       30.07S                  
ANDREWS AFB    CLOUDY    69  66  91 NE8       30.07R                  
FT BELVOIR     CLOUDY    70  68  95 CALM      30.08R                  
QUANTICO       CLOUDY    73  71  93 E13       30.08R                  
COLLEGE PARK*  CLOUDY    69  64  85 NE3       30.08R                  
LEESBURG*      CLOUDY    68  66  94 NE9       30.09R                  
MANASSAS*      PTSUNNY   70  68  93 E6        30.07R                  
GAITHERSBURG*  CLOUDY    67  64  90 VRB3      30.10S                  

$$

MDZ006>007-011-014-201300-
BALTIMORE METRO
  
CITY           SKY/WX    TMP DP  RH WIND       PRES   REMARKS
BWI AIRPORT    CLOUDY    69  63  81 NE8       30.09R                  
MD SCIENCE CTR   N/A     71  63  75 MISG      30.09S                  
MARTIN STATE   PTSUNNY   70  66  88 NE5       30.10S                  
ANNAPOLIS      CLOUDY   N/A N/A N/A NE8       30.08R                  
FORT MEADE*    CLOUDY    68  63  83 NE3       30.11R                  

$$

MDZ012-015-019>023-201300-
MARYLAND EASTERN SHORE
  
CITY           SKY/WX    TMP DP  RH WIND       PRES   REMARKS
OCEAN CITY     CLOUDY    75  71  87 NE8G17    30.06S                  
SALISBURY      FAIR      73  71  93 NE6       30.05S                  
BAY BRIDGE AP* CLOUDY    70  66  88 E8        30.08R                  
CAMBRIDGE*     PTSUNNY   72  68  88 NE6       30.06S                  
EASTON*        CLOUDY    72  66  83 NE8       30.10R                  

$$

MDZ017>025-201300-
SOUTHERN MARYLAND
  
CITY           SKY/WX    TMP DP  RH WIND       PRES   REMARKS
PATUXENT RIVER NOT AVBL                                               
ST INIGOES     CLOUDY    74  70  87 NE7       30.05R                  
LEONARDTOWN*   CLOUDY    72  68  88 NE3       30.07S                  

$$

MDZ003>005-201300-
NORTH CENTRAL MARYLAND
  
CITY           SKY/WX    TMP DP  RH WIND       PRES   REMARKS
FREDERICK*     RAIN      70  70 100 CALM      30.12S                  
HAGERSTOWN APT PTSUNNY   68  64  87 E7        30.10S                  
WESTMINSTER*   PTSUNNY   66  61  82 E5        30.11R                  

$$

MDZ501>502-201300-
WESTERN MARYLAND
  
CITY           SKY/WX    TMP DP  RH WIND       PRES   REMARKS
OAKLAND*       CLOUDY    61  61 100 SE9       30.13S                  
CUMBERLAND*    CLOUDY    70  68  94 CALM      30.12F                  

$$

VAZ025>031-201300-
SHENANDOAH VALLEY
  
CITY           SKY/WX    TMP DP  RH WIND       PRES   REMARKS
WINCHESTER*    CLOUDY    66  64  94 CALM      30.10S                  
FRONT ROYAL*   CLOUDY    68  68 100 CALM      30.07F                  
LURAY*         CLOUDY    68  68 100 NE5       30.07F                  
NEW MARKET*    CLOUDY    68  67  96 N6        30.07S                  
STAUNTON*      CLOUDY    68  67  95 N5        30.11R                  
WAYNESBORO*    CLOUDY    67  67 100 CALM      30.10R                  

$$

WVZ021-048>050-054>055-201300-
EASTERN WEST VIRGINIA PANHANDLE
  
CITY           SKY/WX    TMP DP  RH WIND       PRES   REMARKS
MARTINSBURG    CLOUDY    68  66  93 E6        30.07F                  
PETERSBURG*    CLOUDY    68  66  94 CALM      30.08F FOG              

$$

VAZ036>039-050-201300-
CENTRAL FOOTHILLS
  
CITY           SKY/WX    TMP DP  RH WIND       PRES   REMARKS
CHARLOTTESVILL CLOUDY    72  68  87 NE7       30.07R FOG              
CULPEPER*      CLOUDY    71  69  94 CALM      30.09R                  
ORANGE*        CLOUDY    68  68 100 NE5       30.08R                  
GORDONSVILLE*  CLOUDY    70  70 100 NE5       30.07R                  
WARRENTON*     CLOUDY    71  67  87 E3        30.08R                  

$$

VAZ055>057-201300-
NORTH AND CENTRAL PIEDMONT
  
CITY           SKY/WX    TMP DP  RH WIND       PRES   REMARKS
FREDERICKSBRG* CLOUDY    71  71 100 CALM      30.07R                  
STAFFORD*      CLOUDY    71  71 100 CALM      30.11R                  

$$

NCZ024-NYZ072-PAZ021-071-VAZ022-071-201300-
OTHER REGIONAL OBSERVATIONS
  
CITY           SKY/WX    TMP DP  RH WIND       PRES   REMARKS
NEW YORK CITY  CLOUDY    68  61  78 N5        30.16R                  
PHILADELPHIA   PTSUNNY   68  62  81 NE10      30.11R                  
PITTSBURGH     PTSUNNY   62  62 100 CALM      30.07R                  
ROANOKE        CLOUDY    71  68  90 CALM      30.10S                  
RICHMOND       CLOUDY    74  72  93 NE10      30.02F                  
RALEIGH        PTSUNNY   70  69  97 N3        30.03F                  

$$

ANZ530>537-201300-
MARINE OBSERVATIONS
  
STATION/POSITION TIME  TEMP    WIND        PRES
                       AIR SEA DIR/SP/G
                 (UTC) (F)     (DEG/KT/KT) (MB)
THOMAS PT LIGHT  1200   71 81   60/ 15/ 16 1019.2R
BALT KEY BRIDGE  1148   69      50/ 10/ 12 1018.4R
COVE POINT       1142   72      70/ 12/ 17 1018.4R
LEWISETTA        1136   76 82   60/ 11/ 16 1017.2R
SOLOMONS ISLAND  1148   73 82   40/  9/ 13 1017.7R
PINEY POINT      1136           80/  7/  9   N/A

$$